Location: North Runcton
(52.7000°N, 0.4333°E)
Time: 15:20:29
(UTC+00:00)

Cosmos 1570 Rocket - Pass Details

Date: 19 May 2025
Orbit: 759 x 785 km, 74.1° (Epoch: 18 June)

Event Time Altitude Azimuth Distance (km) Brightness Sun altitude
Exits shadow 21:19:34 -1° 193° (SSW) 3,284 6.9 -9.9°
Rises 21:19:44 0° 193° (SSW) 3,218 6.8 -9.9°
Reaches altitude 10° 21:22:07 10° 190° (S) 2,299 6.1 -10.1°
Maximum altitude 21:27:15 63° 110° (ESE) 861 4.0 -10.6°
Drops below altitude 10° 21:32:29 10° 30° (NNE) 2,333 6.9 -11.0°
Sets 21:34:54 0° 28° (NNE) 3,268 7.7 -11.2°
